Tracking 19794 objects as of 22-Jul-2019
HD Live streaming from Space Station
objects crossing your sky now

PICOSAT 6

Track PICOSAT 6 now!
10-day predictions
PICOSAT 6 is classified as:


NORAD ID: 26094
Int'l Code: 2000-004M
Perigee: 733.2 km
Apogee: 781.5 km
Inclination: 100.2 °
Period: 99.8 minutes
Semi major axis: 7128 km
RCS: 0.0137 m2 (small)
Launch date: January 27, 2000
Source: United States (US)
Launch site: AIR FORCE WESTERN TEST RANGE (AFWTR)
aabbcc
Your satellite tracking list
Your tracking list is empty




NASA's NSSDC Master Catalog

Two Line Element Set (TLE):
1 26094U 00004M   19203.07224719  .00000040  00000-0  29945-4 0  9999
2 26094 100.2200  45.5965 0033858 182.9016 177.1976 14.42521685 21252
Source of the keplerian elements: AFSPC